Flag for Germany Weather past 2 weeks in Alsfeld, Hesse, Germany

Now
60 °F

Light rain. Overcast.


Feels Like: 60 °F
Forecast: 51 / 62 °F
Wind: 1 mph from Northwest

Location: Fritzlar

Current Time: Aug 31, 2014 at 1:24:31 AM

Latest Report: Aug 31, 2014 at 1:00 AM


Visibility: 13 mi

Pressure: 30.00 "Hg

Humidity: 87%

Dew point: 56 °F

Location of AlsfeldLocation

Historic Weather in Alsfeld — Graph

°F

Alsfeld temperature yesterday

Maximum temperature yesterday: 67 °F (at 1:00 PM)
Minimum temperature yesterday: 52 °F (at 6:00 AM)
Average temperature yesterday: 60 °F

Past Weeks' High & Low Weather Summary

 TemperatureHumidityPressure
High72 °F (Aug 28, 5:00 PM)98% (Aug 25, 8:00 AM)30.11 "Hg (Aug 25, 8:00 AM)
Low42 °F (Aug 28, 5:00 AM)37% (Aug 18, 5:00 PM)29.69 "Hg (Aug 18, 3:00 PM)
Average57 °F77%29.95 "Hg
* Reported Midnight between Aug 15 and Aug 16 — Midnight between Aug 30 and Aug 31, Alsfeld, Weather by CustomWeather, © 2014

Note: Actual official high and low records may vary slightly from our data, if they occured in-between our weather recording intervals... More about our weather records

Advertising

Alsfeld weather history for previous 24 hours

 ConditionsComfort  
Time TempWeatherWind HumidityBarometerVisibility
12:00 AM
Aug 31
59 °FOvercast.2 mph88%30.00 "Hg16 mi
11:00 PM
Aug 30
60 °FOvercast.2 mph86%30.00 "Hg19 mi
10:00 PM62 °FOvercast.3 mph83%30.01 "Hg19 mi
9:00 PM63 °FOvercast.3 mph79%30.01 "Hg22 mi
8:00 PM64 °FOvercast.5 mph76%30.00 "Hg22 mi
7:00 PM65 °FOvercast.3 mph72%30.00 "Hg25 mi
6:00 PM66 °FOvercast.3 mph72%30.01 "Hg25 mi
5:00 PM66 °FOvercast.5 mph67%30.02 "Hg25 mi
4:00 PM66 °FOvercast.6 mph68%30.03 "Hg25 mi
3:00 PM66 °FOvercast.5 mph67%30.04 "Hg25 mi
2:00 PM66 °FOvercast.3 mph68%30.04 "Hg25 mi
1:00 PM67 °FOvercast.5 mph66%30.04 "Hg19 mi
12:00 PM65 °FPartly sunny.5 mph72%30.05 "Hg16 mi
11:00 AM62 °FPartly sunny.5 mph82%30.06 "Hg16 mi
10:00 AM59 °FLight rain. Overcast.3 mph89%30.07 "Hg16 mi
9:00 AM57 °FOvercast.5 mph92%30.06 "Hg16 mi
8:00 AM56 °FLow clouds.3 mph97%30.06 "Hg12 mi
7:00 AM52 °FFog.1 mph98%30.06 "Hg2 mi
6:00 AM52 °FFog.2 mph98%30.05 "Hg1 mi
5:00 AM53 °FFog.1 mph98%30.06 "Hg2 mi
4:00 AM54 °FFog.1 mph98%30.05 "Hg0 mi
3:00 AM56 °FPassing clouds.N/A95%30.05 "Hg12 mi
2:00 AM55 °FPassing clouds.N/A96%30.05 "Hg12 mi
1:00 AM56 °FOvercast.2 mph95%30.05 "Hg12 mi
Weather by CustomWeather, © 2014

See weather overviewHow to use our weather pages